Location: ???? ?????????
(44.3677°N, 135.2344°E)
Time: 14:09:28
(UTC+00:00)

USA 267 - Pass Details

Date: 19 May 2025
Orbit: 1101 x 1106 km, 123.0° (Epoch: 01 May)

Event Time Altitude Azimuth Distance (km) Brightness Sun altitude
Rises 16:24:36 0° 56° (NE) 3,924 7.1 -22.6°
Reaches altitude 10° 16:27:27 10° 67° (ENE) 2,963 6.1 -22.4°
Maximum altitude 16:33:05 30° 127° (SE) 1,848 4.3 -22.0°
Enters shadow 16:35:16 25° 159° (SSE) 2,055 4.3 -21.8°
